logo tempoitalia

Diretta Meteo Dubai Al Maktoum International Airport, Emirati Arabi Unitilunedì 31 agosto ore 09:30

Mappa
Sereno 38 °C Sereno 24 Ore: T.min 29 T.max 45
Ponente Sud Km/h 25.9 Punto di rugiada: 16 °C Umidità: 27% Visibilità: 8 Km
Il sole sorge alle: 05:59 Il sole tramonta alle: 18:39
31 Agosto 2026 09:30 tempo osservato: Sereno Sereno 38 27 1002 vento: Nord S 25.9
31 Agosto 2026 09:00 tempo osservato: Sereno Sereno 37 28 1002 vento: Nord S 27.8
31 Agosto 2026 08:30 tempo osservato: Sereno Sereno 35 28 1002 vento: Nord S 31.5
31 Agosto 2026 08:00 tempo osservato: Sereno Sereno 34 30 1002 vento: Nord S 27.8
31 Agosto 2026 07:30 tempo osservato: Sereno Sereno 33 29 1002 vento: Nord S 24
31 Agosto 2026 07:00 tempo osservato: Sereno Sereno 32 31 1002 vento: Nord S 24
31 Agosto 2026 06:30 tempo osservato: Sereno Sereno 31 33 1002 vento: Nord S 24
31 Agosto 2026 06:00 tempo osservato: Sereno Sereno 30 37 1002 vento: Nord SE 9.3
31 Agosto 2026 05:30 tempo osservato: Sereno Sereno 31 35 1002 vento: Nord S 14.8
31 Agosto 2026 05:00 tempo osservato: Sereno Sereno 31 37 1002 vento: Nord S 7.4
31 Agosto 2026 04:30 tempo osservato: Sereno Sereno 31 40 1002 vento: Nord N 5.5
31 Agosto 2026 03:00 tempo osservato: Sereno Sereno 30 48 1002 vento: Nord E/SE 11.1
31 Agosto 2026 02:30 tempo osservato: Sereno Sereno 30 51 1002 vento: Nord SE 14.8
31 Agosto 2026 02:00 tempo osservato: Sereno Sereno 29 58 1002 vento: Nord SE 11.1
31 Agosto 2026 01:30 tempo osservato: Sereno Sereno 30 55 1002 vento: Nord SE 7.4
31 Agosto 2026 01:00 tempo osservato: Sereno Sereno 30 58 1002 vento: Nord N 5.5
31 Agosto 2026 00:30 tempo osservato: Sereno Sereno 31 55 1002 vento: Nord N 3.7
31 Agosto 2026 00:00 tempo osservato: Sereno Sereno 32 52 1002 vento: Nord N 1.8
30 Agosto 2026 23:30 tempo osservato: Sereno Sereno 32 52 1002 vento: Nord N 3.7
30 Agosto 2026 23:00 tempo osservato: Sereno Sereno 34 49 1002 vento: Nord S/SE 9.3
30 Agosto 2026 22:30 tempo osservato: Sereno Sereno 34 49 1002 vento: Nord SE 9.3
30 Agosto 2026 22:00 tempo osservato: Sereno Sereno 33 49 1002 vento: Nord E/SE 11.1
30 Agosto 2026 21:30 tempo osservato: Sereno Sereno 34 52 1002 vento: Nord N 5.5
30 Agosto 2026 21:00 tempo osservato: Sereno Sereno 35 49 1002 vento: Nord NE 7.4
30 Agosto 2026 20:30 tempo osservato: Sereno Sereno 35 53 1001 vento: Nord N 7.4
30 Agosto 2026 20:00 tempo osservato: Sereno Sereno 35 53 1001 vento: Nord N/NO 7.4
30 Agosto 2026 19:30 tempo osservato: Sereno Sereno 36 47 1001 vento: Nord NO 14.8
30 Agosto 2026 19:00 tempo osservato: Sereno Sereno 37 39 1001 vento: Nord NO 14.8
30 Agosto 2026 18:30 tempo osservato: Sereno Sereno 38 39 1000 vento: Nord NO 16.7
30 Agosto 2026 18:00 tempo osservato: Sereno Sereno 40 29 1000 vento: Nord NO 20.3
30 Agosto 2026 17:30 tempo osservato: Sereno Sereno 41 31 1000 vento: Nord NO 20.3
30 Agosto 2026 17:00 tempo osservato: Sereno Sereno 42 25 1000 vento: Nord O/NO 25.9
30 Agosto 2026 16:30 tempo osservato: Sereno Sereno 43 16 1000 vento: Nord O 31.5
30 Agosto 2026 16:00 tempo osservato: Sereno Sereno 43 21 1000 vento: Nord O/NO 33.3
30 Agosto 2026 15:30 tempo osservato: polveroso polveroso 43 22 1000 vento: Nord O/NO 31.5
30 Agosto 2026 15:00 tempo osservato: Sereno Sereno 44 21 1001 vento: Nord O/NO 27.8
30 Agosto 2026 14:40 tempo osservato: Sereno Sereno 44 21 1001 vento: Nord O/NO 24
30 Agosto 2026 14:30 tempo osservato: Sereno Sereno 45 13 1001 vento: Nord SO 22.2
30 Agosto 2026 14:00 tempo osservato: Sereno Sereno 45 14 1001 vento: Nord SO 22.2
30 Agosto 2026 13:30 tempo osservato: Sereno Sereno 44 16 1002 vento: Nord O/SO 20.3
30 Agosto 2026 13:00 tempo osservato: Sereno Sereno 44 15 1002 vento: Nord SO 27.8
30 Agosto 2026 12:30 tempo osservato: Sereno Sereno 44 16 1002 vento: Nord SO 24
30 Agosto 2026 12:00 tempo osservato: Sereno Sereno 43 17 1003 vento: Nord S/SO 27.8
30 Agosto 2026 11:30 tempo osservato: Sereno Sereno 43 17 1003 vento: Nord S/SO 25.9
30 Agosto 2026 11:00 tempo osservato: Sereno Sereno 42 19 1003 vento: Nord S/SO 25.9
30 Agosto 2026 10:30 tempo osservato: Sereno Sereno 41 21 1003 vento: Nord S/SO 29.6
30 Agosto 2026 10:00 tempo osservato: Sereno Sereno 40 24 1003 vento: Nord S 29.6